Location: Little Chesterford
(52.0500°N, 0.1833°E)
Time: 11:46:33
(UTC+00:00)

Cosmos 2322 Rocket - Pass Details

Date: 26 September 2023
Orbit: 831 x 852 km, 71.0° (Epoch: 28 November)

Event Time Altitude Azimuth Distance (km) Brightness Sun altitude
Rises 20:22:07 0° 258° (WSW) 3,373 6.0 -23.4°
Reaches altitude 10° 20:25:04 10° 272° (W) 2,443 5.4 -23.8°
Maximum altitude 20:29:27 23° 324° (NW) 1,711 4.5 -24.3°
Drops below altitude 10° 20:33:52 10° 16° (NNE) 2,457 4.8 -24.9°
Sets 20:36:52 0° 31° (NNE) 3,397 5.4 -25.3°
